Regional Weather Roundup
Issued by NWS

Home | Current Version | Previous Version | Graphics & Text | Print | Product List | Glossary On
Versions: 1 2 3 4 5 6 7 8 9 10 11 12 13 14 15 16 17 18 19 20 21 22 23 24 25 26 27 28 29 30 31 32 33 34 35 36 37 38 39 40 41 42 43 44 45 46 47 48 49 50
000
ASUS44 KMEG 240010
RWRTN
TENNESSEE HOURLY STATE WEATHER ROUNDUP
NATIONAL WEATHER SERVICE MEMPHIS TN
600 PM CST FRI FEB 23 2018

TNZ002-004-019-021-049-052-054-088>092-240100-
WEST TENNESSEE

CITY           SKY/WX    TMP DP  RH WIND       PRES   REMARKS
MEMPHIS INTL   MOCLDY    61  59  93 N8        30.19S
NWS MEMPHIS      N/A     60 N/A N/A MISG        N/A
JACKSON        CLOUDY    63  61  93 NW7       30.20R
DYERSBURG      CLOUDY    56  53  90 NE8       30.22F
COVINGTON      CLOUDY    59  55  88 N12       30.21R
UNION CITY     CLOUDY    55  54  94 CALM      30.21F
BOLIVAR        PTCLDY    68  63  83 NW7       30.17R
PARIS          CLOUDY    59  57  94 NW9       30.20S
LEXINGTON      MOCLDY    72  63  73 N5G12     30.17R
SAVANNAH       CLEAR     72  59  64 SE5       30.17S
$$

TNZ008-025-027-028-033-062-065-066-240100-
NORTH MIDDLE TENNESSEE

CITY           SKY/WX    TMP DP  RH WIND       PRES   REMARKS
NASHVILLE      MOCLDY    71  55  56 S6        30.19F
PORTLAND       CLOUDY    72  63  73 CALM      30.19S
CLARKSVILLE    CLOUDY    63  58  83 NW15G23   30.20R
SMYRNA         FAIR      72  57  59 S5        30.20F
COOKEVILLE     CLEAR     63  57  82 CALM      30.21F
GALLATIN       CLEAR     73  55  53 CALM      30.20S
CROSSVILLE     FAIR      68  53  58 S3        30.27S
$$

TNZ061-075-076-078-094-096-097-240100-
SOUTH MIDDLE TENNESSEE

CITY           SKY/WX    TMP DP  RH WIND       PRES   REMARKS
FAYETTEVILLE   CLEAR     68  55  64 S5        30.21F
TULLAHOMA      CLEAR     70  54  56 CALM      30.21F
WINCHESTER     CLEAR     72  54  53 S5        30.23S
MCMINNVILLE    PTCLDY    72  57  60 CALM      30.21F
COLUMBIA       CLEAR     72  57  60 S3        30.18R
SHELBYVILLE    CLEAR     70  55  60 S3        30.20F
$$

TNZ017-018-042-046-047-240100-
NORTHEAST TENNESSEE

CITY           SKY/WX    TMP DP  RH WIND       PRES   REMARKS
TRI CITIES     MOCLDY    70  56  61 SW6       30.26R
ELIZABETHTON   CLOUDY    68  57  68 CALM      30.27R
$$

TNZ012-013-036-069-073-074-240100-
CENTRAL EAST TENNESSEE

CITY           SKY/WX    TMP DP  RH WIND       PRES   REMARKS
KNOXVILLE      FAIR      73  55  53 SW7       30.23S
OAK RIDGE      FAIR      72  56  57 CALM      30.24S
GATLINBURG     PTCLDY    73  50  43 W3        30.24R
JACKSBORO      CLEAR     68  55  64 CALM      30.27S
$$

TNZ083-085-099-240100-
SOUTHEAST TENNESSEE

CITY           SKY/WX    TMP DP  RH WIND       PRES   REMARKS
CHATTANOOGA    MOCLDY    75  58  55 SE6       30.23R
$$

SKY/WX REPORTED AS FAIR MEANS FEW OR NO CLOUDS BELOW
12 THOUSAND FEET.





USA.gov is the U.S. government's official web portal to all federal, state and local government web resources and services.